Regional Weather Roundup
Issued by NWS

Home | Current Version | Previous Version | Text Only | Print | Product List | Glossary Off
Versions: 1 2 3 4 5 6 7 8 9 10 11 12 13 14 15 16 17 18 19 20 21 22 23 24 25 26 27

000
ASUS45 KBOU 231907
RWRCO

WEATHER ROUNDUP FOR COLORADO
NATIONAL WEATHER SERVICE DENVER/BOULDER CO
100 PM MDT THU OCT 23 2014

NOTE: "FAIR" INDICATES FEW OR NO CLOUDS BELOW 12000 FEET WITH NO
SIGNIFICANT WEATHER AND/OR OBSTRUCTIONS TO VISIBILITY.

COZ001>005-013-030-031-232000-
...NORTHWEST COLORADO...

CITY           SKY/WX    TMP DP  RH WIND       PRES   REMARKS
CRAIG          SUNNY     64  36  35 W7        30.24F
HAYDEN         SUNNY     59  32  36 N7        30.25F
MEEKER         SUNNY     65  37  35 CALM      30.25F
MOUNT WERNER   NOT AVBL
STEAMBOAT SPGS   N/A    N/A N/A N/A MISG        N/A
WALDEN         PTSUNNY   55  27  33 SW17G25   30.28F
$$

COZ006>008-011-232000-
...WEST CENTRAL VALLEYS...

CITY           SKY/WX    TMP DP  RH WIND       PRES   REMARKS
GRAND JUNCTION SUNNY     65  38  36 S6        30.23F
MONTROSE       SUNNY     65  38  36 CALM      30.28F
EAGLE          MOSUNNY   55  37  50 CALM      30.31F
RIFLE          SUNNY     60  39  45 CALM      30.26F
DELTA          SUNNY     69  34  27 E5        30.25F
NUCLA          SUNNY     64  34  32 N3        30.32F
$$

COZ017>023-064>068-232000-
...SOUTHWEST COLORADO...

CITY           SKY/WX    TMP DP  RH WIND       PRES   REMARKS
DURANGO        SUNNY     62  38  40 W7        30.32F
CORTEZ         SUNNY     68  36  30 S8        30.30F
PAGOSA SPRINGS SUNNY     61  29  30 S5        30.36F
TELLURIDE      SUNNY     58  27  29 W7        30.44F
WOLF CREEK PAS SUNNY     43  30  61 SW10G18     N/A
$$

COZ009-010-012-014-032>034-037-058>063-232000-
...CENTRAL COLORADO...

CITY           SKY/WX    TMP DP  RH WIND       PRES   REMARKS
ASPEN          SUNNY     60  32  34 N6        30.32F
BUENA VISTA    SUNNY     60  26  26 SE6       30.32F
COPPER MTN     SUNNY     45  27  49 W10G20    30.51F
BERTHOUD PASS  FAIR      32  30  93 NW16G33   30.52S WCI  21
COTTONWOOD PAS SUNNY     57  27  30 N3        30.42S
GUNNISON       SUNNY     54  32  43 S3        30.39F
KREMMLING      SUNNY     52  36  54 CALM        N/A
LEADVILLE      SUNNY     50  28  42 W12G21    30.41S
MONARCH PASS   SUNNY     36  30  80 SW23G33   30.64R
SALIDA         SUNNY     67  30  25 SW13      30.37F
SUNLIGHT       SUNNY     52  32  46 CALM      30.50S
WILKERSON PASS NOT AVBL
$$

COZ069>075-232000-
...SAN LUIS VALLEY/SANGRE DE CRISTO MOUNTAINS...

CITY           SKY/WX    TMP DP  RH WIND       PRES   REMARKS
ALAMOSA        SUNNY     61  28  28 CALM      30.33F
LA VETA PASS   SUNNY     52  28  40 S10G20    30.43F
SAGUACHE       SUNNY     61  32  33 S8        30.34F
$$

COZ035-036-038>040-232000-
...NORTHERN COLORADO FRONT RANGE...

CITY           SKY/WX    TMP DP  RH WIND       PRES   REMARKS
DENVER INTL AP PTSUNNY   74  28  18 W10G17    30.15S
DMNS CITY PARK   N/A     70  28  20 E3        30.14F
AURORA         PTSUNNY   69  29  22 SW8       30.17F
FRONT RANGE AP MOSUNNY   73  30  20 W6        30.16F
ERIE MUNI ARPT PTSUNNY   73  26  17 W16G25    30.13F
BOULDER MUN AP PTSUNNY   68  30  24 W21       30.14F
CENTENNIAL     PTSUNNY   69  26  20 NW3       30.17F
BROOMFIELD     PTSUNNY   72  30  21 W22       30.16F
FORT COLLINS   PTSUNNY   70  41  35 SE7       30.13F
LONGMONT       PTSUNNY   72  31  22 S6        30.14F
$$

COZ041-046-047-076>085-087-088-232000-
...PIKES PEAK/PALMER DIVIDE AND SOUTHERN FOOTHILLS...

CITY           SKY/WX    TMP DP  RH WIND       PRES   REMARKS
COLO. SPRINGS  MOSUNNY   69  28  21 SW10      30.21F
A. F. ACADEMY  MOSUNNY   68  29  23 S10       30.21F
ELLICOTT       NOT AVBL
FALCON         SUNNY     68  24  19 CALM      30.24F
FORT CARSON    SUNNY     69  30  23 SE8       30.18F
LIMON          SUNNY     69  27  20 SW7       30.16F
MONUMENT HILL  SUNNY     66  23  19 W7        30.23F
TRINIDAD       SUNNY     72  28  19 MISG      30.19F
$$

COZ042>045-048>051-090-091-232000-
...NORTHEAST COLORADO...

CITY           SKY/WX    TMP DP  RH WIND       PRES   REMARKS
GREELEY ARPT   PTSUNNY   70  41  35 SW6       30.12F
AKRON          MOSUNNY   71  36  27 SW13      30.12F
BURLINGTON     MOSUNNY   72  43  35 MISG      30.12F
WRAY           MOSUNNY   77  38  24 S6        30.08F
STERLING       MOSUNNY   72  45  37 SW10      30.09F
HOLYOKE        MOSUNNY   77  37  24 W8        30.07F
FORT MORGAN    MOSUNNY   70  37  29 S6        30.13F
$$

COZ086-089-092>099-232000-
...SOUTHEAST COLORADO...

CITY           SKY/WX    TMP DP  RH WIND       PRES   REMARKS
PUEBLO         SUNNY     74  29  19 E3        30.13F
LA JUNTA       SUNNY     71  44  37 W5        30.13F
LAMAR          SUNNY     74  48  39 W8        30.10F
SPRINGFIELD      N/A     72  48  42 VRB5      30.13F
$$



USA.gov is the U.S. government's official web portal to all federal, state and local government web resources and services.